[[{"header":{"parameterUnit":"m.s-1","parameterCategory":1,"la1":30.2991,"la2":30.254,"lo1":-89.0895,"lo2":-89.0444,"dy":0.0017,"dx":0.0017,"nx":28,"ny":28,"refTime":"2024-08-07T03:00:00:Z","depth":0,"parameterNumber":2,"parameterNumberName":"U-component_of_WINDS"},"data":[0,0,0,0,0,0,0,0,0,0,0,0,0,0,0,0,0,0,0,0,0,0,0,0,0,0,0,0,0,0,0,0,0,0,0,0,0,0,0,0,0,0,0,0,0,0,0,0,0,0,0,0,0,0,0,0,0,0,4.1206,4.1207,0,4.1333,4.1335,4.1336,4.1269,4.1265,4.1262,4.1259,4.1394,4.1401,4.1408,0,0,0,0,0,0,0,0,0,0,0,0,0,4.091,4.0916,4.1206,4.1207,4.1209,4.1333,4.1335,4.1336,4.1269,4.1265,4.1261,4.1257,4.1392,4.14,4.1408,0,0,0,0,0,0,0,0,0,0,0,0,0,4.1038,4.0918,4.1206,4.119,4.119,4.1333,4.1335,4.1337,4.127,4.1265,4.126,4.1255,4.1389,4.1399,4.141,4.1576,0,0,4.1441,4.1445,0,0,0,0,0,0,0,0,4.1031,4.1049,4.1191,4.1192,4.1192,4.128,4.128,4.1417,4.1271,4.124,4.1258,4.1253,4.1361,4.1373,4.1408,4.1582,4.1588,4.1442,4.1448,4.1452,4.1455,0,0,0,0,0,0,0,4.1022,4.1044,4.1256,4.1193,4.1194,4.1179,4.1191,4.1306,4.1328,4.1242,4.1238,4.1253,4.136,4.1399,4.1411,4.159,4.1441,4.145,4.1457,4.1461,4.1909,4.1915,0,0,0,0,0,0,4.1014,4.1037,4.1252,4.126,4.1097,4.1188,4.1202,4.1257,4.1326,4.1332,4.1258,4.125,4.1384,4.1399,4.1416,4.1616,4.1452,4.1462,4.1468,4.1903,4.191,4.1917,0,0,0,0,0,0,4.1008,4.1033,4.1247,4.1147,4.1173,4.1199,4.1261,4.1262,4.13,4.1338,4.1342,4.1293,4.138,4.1401,4.1537,4.162,4.1466,4.1476,4.1897,4.1905,4.1913,4.2019,0,0,0,0,0,0,4.0999,4.1032,4.1094,4.1149,4.1179,4.1365,4.1266,4.1268,4.1318,4.1309,4.1372,4.1378,4.1378,4.1522,4.1547,4.1632,4.1484,4.1889,4.1901,4.1911,4.2008,4.203,4.2049,0,0,0,0,0,4.0989,4.1119,4.1097,4.1124,4.1257,4.1369,4.1387,4.1383,4.1325,4.1388,4.1413,4.1376,4.1607,4.1536,4.1564,4.1653,4.1884,4.1897,4.191,4.1999,4.2026,4.2048,0,0,0,0,0,0,4.1075,4.1126,4.1102,4.1254,4.1308,4.1358,4.1438,4.1411,4.1484,4.1473,4.1466,4.1481,4.1622,4.1651,4.1571,4.1819,4.1737,4.1756,4.1795,4.1821,4.1841,4.1831,4.1492,0,0,0,0,0,4.1111,4.1196,4.1237,4.1367,4.1395,4.1412,4.1461,4.1453,4.151,4.1533,4.1567,4.1624,4.171,4.1767,4.1847,4.2011,4.2026,4.2086,4.2107,4.2123,4.2141,4.2232,4.226,4.1959,4.1959,4.1959,0,0,4.1187,4.1226,4.1281,4.1386,4.1426,4.1517,4.1432,4.1531,4.1599,4.1548,4.1678,4.1705,4.1769,4.192,4.1988,4.1949,4.2227,4.214,4.2153,4.2161,4.2248,4.2276,4.2302,4.1968,4.1966,4.1965,0,0,4.1373,4.141,4.1523,4.1565,4.1628,4.1638,4.1665,4.172,4.1736,4.1866,4.183,4.1911,4.2058,4.2106,4.2149,4.2354,4.2324,4.2381,4.2488,4.2577,4.26,4.2621,4.2696,4.2723,4.2397,4.2398,4.2398,0,4.1461,4.1594,4.1585,4.1687,4.1736,4.1692,4.1808,4.185,4.1936,4.1972,4.1925,4.2109,4.2149,4.2312,4.2362,4.2398,4.243,4.2374,4.2597,4.2618,4.2638,4.2709,4.2737,4.2404,4.2404,4.2403,4.2402,0,4.17,4.1793,4.1877,4.196,4.2018,4.2127,4.2136,4.2195,4.2183,4.2199,4.2333,4.2379,4.2469,4.2507,4.2496,4.2669,4.2642,4.2597,4.2515,4.2673,4.2741,4.2768,4.2414,4.2411,4.241,4.2408,0,0,4.1944,4.202,4.2052,4.2089,4.2155,4.2228,4.2336,4.2422,4.2475,4.2536,4.2628,4.2753,4.2712,4.2761,4.2756,4.2833,4.2995,4.2778,4.278,4.2819,4.3191,4.3225,4.3257,4.2974,4.298,4.2984,4.3186,0,4.2136,4.2322,4.2317,4.2491,4.2578,4.2539,4.2632,4.2684,4.2703,4.2781,4.2801,4.2891,4.2829,4.2859,4.2934,4.2959,4.307,4.2944,4.3062,4.3066,4.3049,4.3292,4.3329,4.3517,4.3212,4.3216,4.3219,0,4.2384,4.2452,4.2635,4.2689,4.2725,4.281,4.2889,4.2964,4.3023,4.3031,4.3086,4.3068,4.318,4.3093,4.3248,4.3163,4.3211,4.3231,4.3238,4.3251,4.3154,4.3313,4.3577,4.3606,4.326,4.3257,4.3254,0,4.2546,4.2684,4.2811,4.2844,4.291,4.2971,4.3001,4.3054,4.3107,4.3178,4.3212,4.3295,4.3341,4.3407,4.3413,4.3349,4.357,4.3483,4.3582,4.3582,4.3631,4.3628,4.3909,4.3659,4.3659,4.3658,4.3658,0,4.2761,4.2875,4.2885,4.2963,4.309,4.3084,4.3211,4.3236,4.3284,4.3369,4.3339,4.3419,4.3421,4.3504,4.351,4.3638,4.3659,4.367,4.3671,4.3674,4.3673,4.3706,4.3694,4.3666,4.3664,4.3663,4.3661,0,4.2964,4.2975,4.3112,4.3162,4.3178,4.3269,4.3314,4.339,4.3405,4.3512,4.3537,4.3562,4.3658,4.367,4.3782,4.3786,4.3942,4.3927,4.3922,4.392,4.4018,4.401,4.4332,4.4375,4.4095,4.4098,4.41,0,4.3102,4.3188,4.3248,4.3302,4.3335,4.3422,4.3476,4.3474,4.3531,4.3605,4.3673,4.3765,4.3839,4.3995,4.4024,4.4111,4.41,4.4207,4.4113,4.4114,4.4104,4.4099,4.4109,4.4225,4.4228,4.4231,4.4233,0,4.3346,4.3347,4.3424,4.3504,4.3568,4.3631,4.3691,4.3737,4.3742,4.3809,4.3906,4.3963,4.4077,4.4171,4.4256,4.429,4.4264,4.4262,4.429,4.4295,4.4289,4.4295,4.3973,4.4255,4.4253,4.4251,4.425,4.4249,4.3522,4.3597,4.3651,4.3739,4.3783,4.3839,4.3913,4.3937,4.4018,4.4109,4.4104,4.4211,4.427,4.4381,4.4421,4.4506,4.4471,4.4511,4.4521,4.4532,4.4542,4.4273,4.4522,4.4521,4.4521,4.452,4.452,0,4.3765,4.3798,4.3878,4.3962,4.4032,4.3998,4.4063,4.4124,4.4218,4.4273,4.4347,4.4459,4.455,4.4586,4.4675,4.4737,4.4728,4.4761,4.4757,4.4766,4.4568,4.4536,4.4767,4.4767,4.4767,4.4767,4.4767,4.4767,4.39,4.4027,4.4035,4.4184,4.4216,4.432,4.436,4.4412,4.4457,4.4583,4.4657,4.468,4.4729,4.4821,4.4903,4.4912,4.4947,4.4986,4.499,4.4805,4.478,4.4756,4.4726,4.4993,4.4994,4.5181,4.5183,4.5184]},{"header":{"parameterUnit":"m.s-1","parameterCategory":1,"la1":30.2991,"la2":30.254,"lo1":-89.0895,"lo2":-89.0444,"dy":0.0017,"dx":0.0017,"nx":28,"ny":28,"refTime":"2024-08-07T03:00:00:Z","depth":0,"parameterNumber":3,"parameterNumberName":"V-component_of_WINDS"},"data":[0,0,0,0,0,0,0,0,0,0,0,0,0,0,0,0,0,0,0,0,0,0,0,0,0,0,0,0,0,0,0,0,0,0,0,0,0,0,0,0,0,0,0,0,0,0,0,0,0,0,0,0,0,0,0,0,0,0,0.1025,0.1025,0,0.101,0.101,0.101,0.099,0.099,0.0989,0.0989,0.0974,0.0974,0.0974,0,0,0,0,0,0,0,0,0,0,0,0,0,0.1036,0.1035,0.1025,0.1025,0.1025,0.101,0.101,0.101,0.099,0.099,0.0989,0.0989,0.0974,0.0974,0.0974,0,0,0,0,0,0,0,0,0,0,0,0,0,0.1027,0.1035,0.1025,0.1013,0.1012,0.101,0.101,0.101,0.099,0.099,0.0989,0.0989,0.0974,0.0974,0.0974,0.0983,0,0,0.0973,0.0973,0,0,0,0,0,0,0,0,0.1027,0.1027,0.1015,0.1014,0.1012,0.1001,0.1008,0.1001,0.099,0.0998,0.0989,0.0988,0.0983,0.0982,0.0981,0.0982,0.0981,0.0973,0.0973,0.0973,0.0973,0,0,0,0,0,0,0,0.1028,0.1027,0.1019,0.1015,0.1013,0.1008,0.1006,0.1007,0.0994,0.0998,0.0996,0.0995,0.0983,0.0981,0.098,0.0981,0.0973,0.0973,0.0973,0.0973,0.0989,0.0989,0,0,0,0,0,0,0.103,0.1028,0.102,0.1019,0.1019,0.1008,0.1006,0.1006,0.0994,0.0992,0.0995,0.0994,0.0981,0.098,0.098,0.0989,0.0973,0.0973,0.0973,0.0988,0.0989,0.099,0,0,0,0,0,0,0.1031,0.103,0.102,0.1023,0.1021,0.1009,0.1008,0.1005,0.1004,0.0992,0.0989,0.0996,0.0981,0.098,0.0982,0.0989,0.0973,0.0973,0.0988,0.0989,0.0989,0.1009,0,0,0,0,0,0,0.1031,0.103,0.1034,0.1023,0.1021,0.1023,0.1008,0.1006,0.1004,0.1002,0.0992,0.099,0.0981,0.0982,0.0982,0.0988,0.0973,0.0987,0.0988,0.0989,0.1008,0.1011,0.1013,0,0,0,0,0,0.1032,0.104,0.1034,0.1033,0.1025,0.1024,0.1023,0.1012,0.1004,0.1008,0.1,0.099,0.0988,0.0983,0.0982,0.0988,0.0987,0.0988,0.0989,0.1007,0.101,0.1013,0,0,0,0,0,0,0.1052,0.1038,0.1032,0.1037,0.1032,0.102,0.1024,0.1016,0.1012,0.1011,0.0997,0.0995,0.0999,0.0994,0.0988,0.0997,0.0986,0.0987,0.1,0.1003,0.1005,0.1006,0.0972,0,0,0,0,0,0.1057,0.1057,0.1045,0.1051,0.1048,0.1037,0.1036,0.1028,0.1022,0.1019,0.1012,0.1006,0.1004,0.1003,0.1001,0.1007,0.1005,0.1011,0.1014,0.1016,0.1017,0.102,0.1022,0.0993,0.0993,0.0993,0,0,0.1067,0.106,0.1061,0.1055,0.105,0.105,0.1035,0.1036,0.1036,0.1019,0.1021,0.1015,0.1008,0.1012,0.1014,0.1008,0.1024,0.1017,0.1019,0.1019,0.1021,0.1024,0.1026,0.0994,0.0994,0.0994,0,0,0.1087,0.1081,0.1085,0.108,0.1073,0.1065,0.1066,0.1056,0.1051,0.1053,0.1041,0.104,0.1037,0.1032,0.1029,0.1046,0.1037,0.1046,0.1059,0.1062,0.1064,0.1066,0.1072,0.1074,0.1047,0.1047,0.1047,0,0.1101,0.11,0.1088,0.109,0.1087,0.1072,0.1076,0.1072,0.1064,0.1063,0.1057,0.1052,0.1046,0.1049,0.1053,0.1052,0.1052,0.1047,0.1065,0.1067,0.1068,0.1074,0.1076,0.1048,0.1048,0.1048,0.1048,0,0.1118,0.1118,0.1122,0.1114,0.1112,0.1115,0.1103,0.1103,0.1095,0.1088,0.1089,0.1081,0.1077,0.1077,0.1069,0.1079,0.1076,0.1067,0.1056,0.1072,0.1077,0.1079,0.105,0.1049,0.1049,0.1049,0,0,0.1149,0.1135,0.1137,0.1133,0.1124,0.1124,0.1125,0.1121,0.1121,0.1116,0.1117,0.1114,0.1106,0.1103,0.1095,0.1097,0.1111,0.1088,0.1088,0.1093,0.112,0.1127,0.1129,0.1105,0.1105,0.1105,0.1121,0,0.1167,0.1169,0.1158,0.1164,0.1163,0.1149,0.1151,0.1145,0.1138,0.1137,0.1129,0.1127,0.1117,0.1115,0.1117,0.1109,0.1116,0.1108,0.1105,0.1105,0.1108,0.1132,0.1139,0.1154,0.1123,0.1123,0.1123,0,0.1187,0.1183,0.1189,0.1179,0.1178,0.118,0.1175,0.1173,0.1166,0.1161,0.1158,0.1148,0.1149,0.1138,0.1139,0.1133,0.1131,0.1127,0.1128,0.1127,0.1115,0.1132,0.1159,0.1161,0.1126,0.1126,0.1126,0,0.121,0.1206,0.1208,0.1206,0.1194,0.1196,0.1191,0.1183,0.1181,0.1177,0.1175,0.1171,0.1169,0.1165,0.1154,0.1148,0.1156,0.1145,0.1152,0.1152,0.1155,0.1155,0.1181,0.1153,0.1153,0.1153,0.1153,0,0.123,0.1234,0.1218,0.122,0.1224,0.1211,0.1215,0.1209,0.1202,0.1202,0.1189,0.1189,0.1175,0.1174,0.1165,0.1167,0.1166,0.1161,0.1159,0.1163,0.1163,0.1162,0.116,0.1154,0.1154,0.1154,0.1154,0,0.1256,0.1246,0.1248,0.1236,0.1234,0.1237,0.1227,0.1228,0.122,0.122,0.122,0.1207,0.1205,0.1194,0.1188,0.1183,0.1187,0.1183,0.119,0.1188,0.1196,0.1195,0.1223,0.1225,0.1196,0.1196,0.1196,0,0.127,0.1273,0.1262,0.1261,0.1257,0.1255,0.1253,0.1241,0.1239,0.1231,0.1233,0.1229,0.1226,0.1222,0.1213,0.1209,0.1204,0.1214,0.1203,0.1206,0.1204,0.1204,0.1204,0.1216,0.1216,0.1217,0.1217,0,0.1296,0.129,0.1288,0.1284,0.1281,0.1277,0.1272,0.1272,0.1258,0.1257,0.1254,0.1252,0.1246,0.1243,0.1237,0.1232,0.1222,0.122,0.1222,0.1225,0.1229,0.1227,0.1196,0.122,0.1219,0.1219,0.1219,0.1219,0.1316,0.1317,0.131,0.1307,0.1302,0.1298,0.1298,0.1291,0.1288,0.1283,0.1276,0.1274,0.1266,0.1257,0.1253,0.1251,0.1246,0.1248,0.1248,0.1249,0.125,0.1229,0.125,0.125,0.125,0.125,0.125,0,0.1341,0.1335,0.1333,0.1327,0.1325,0.1316,0.131,0.1309,0.1307,0.1301,0.1298,0.1295,0.1291,0.1281,0.1277,0.1277,0.1272,0.1276,0.1276,0.1275,0.1256,0.1255,0.128,0.128,0.128,0.128,0.128,0.128,0.1353,0.1355,0.1349,0.1349,0.1343,0.1341,0.1338,0.1334,0.1329,0.1326,0.1323,0.1317,0.1309,0.1304,0.13,0.1297,0.1296,0.1301,0.1297,0.1279,0.1276,0.1274,0.1273,0.1301,0.1301,0.1316,0.1316,0.1316]}]]